CYGFM05

Last updated on Sat Dec 13 2025 00:02:23 GMT+0000 (Coordinated Universal Time)

1 41884U 16078A 25346.22329184 .00026884 00000+0 50410-3 0 9998 2 41884 34.9602 50.5042 0010052 178.7379 181.3369 15.47606790499689
UTC large
Height (km)
Speed (km/s)
/
Latitude / Longitude
Inclination (degrees)
Orbital Period (minutes)
Azimuth
Elevation
Range (km)
Doppler Factor

Next 0 passes for location: London (51.5072 / 0.1276)

Sorry there are no passes over London.